SWA1583 KBNA-KMKE

Flight info

Callsign SWA1583
Flight time 1h 7m
Altitude 39000
Route GDOGG4 FAPER SCOTO BVT VINNE BRAVE EXARR
Aircraft B737/M-SDE2E3FGHIRWXY/LB1

Departure

Time 2026-04-25 01:23
Airport Nashville International Airport (KBNA)

Arrival

Time 2026-04-25 02:31
Airport General Mitchell International Airport (KMKE)
Time Latitude Longitude Altitude Speed Heading
2026-04-25 00:54 36.12884 -86.66963 568 ft 0 kts 244°
2026-04-25 01:12 36.12885 -86.66961 568 ft 2 kts 244°
2026-04-25 01:12 36.12898 -86.66935 572 ft 4 kts 224°
2026-04-25 01:12 36.12918 -86.66920 571 ft 4 kts 170°
2026-04-25 01:12 36.12931 -86.66928 568 ft 1 kts 136°
2026-04-25 01:13 36.12933 -86.66930 568 ft 0 kts 136°
2026-04-25 01:17 36.12932 -86.66928 568 ft 1 kts 136°
2026-04-25 01:17 36.12926 -86.66921 568 ft 1 kts 136°
2026-04-25 01:18 36.12913 -86.66906 571 ft 3 kts 136°
2026-04-25 01:18 36.12896 -86.66885 568 ft 4 kts 131°
2026-04-25 01:18 36.12875 -86.66853 573 ft 6 kts 130°
2026-04-25 01:18 36.12838 -86.66802 572 ft 10 kts 140°
2026-04-25 01:19 36.12768 -86.66785 571 ft 11 kts 194°
2026-04-25 01:19 36.12707 -86.66842 569 ft 11 kts 221°
2026-04-25 01:19 36.12654 -86.66910 569 ft 11 kts 253°
2026-04-25 01:19 36.12688 -86.66989 568 ft 11 kts 312°
2026-04-25 01:20 36.12738 -86.67060 572 ft 12 kts 310°
2026-04-25 01:20 36.12792 -86.67139 568 ft 13 kts 310°
2026-04-25 01:20 36.12853 -86.67224 569 ft 13 kts 306°
2026-04-25 01:20 36.12816 -86.67317 572 ft 14 kts 223°
2026-04-25 01:21 36.12745 -86.67399 575 ft 14 kts 223°
2026-04-25 01:21 36.12665 -86.67468 575 ft 16 kts 207°
2026-04-25 01:21 36.12565 -86.67547 580 ft 18 kts 224°
2026-04-25 01:21 36.12478 -86.67650 579 ft 17 kts 223°
2026-04-25 01:22 36.12382 -86.67699 580 ft 12 kts 200°
2026-04-25 01:22 36.12363 -86.67782 577 ft 11 kts 287°
2026-04-25 01:22 36.12391 -86.67885 576 ft 15 kts 288°
2026-04-25 01:22 36.12356 -86.67988 575 ft 15 kts 201°
2026-04-25 01:23 36.12241 -86.68034 573 ft 27 kts 198°
2026-04-25 01:23 36.11833 -86.68199 575 ft 98 kts 198°
2026-04-25 01:23 36.10990 -86.68540 655 ft 146 kts 199°
2026-04-25 01:23 36.10013 -86.68929 1203 ft 156 kts 198°
2026-04-25 01:24 36.09039 -86.69482 1892 ft 150 kts 227°
2026-04-25 01:24 36.08515 -86.70524 2789 ft 142 kts 249°
2026-04-25 01:24 36.08161 -86.71664 3688 ft 144 kts 249°
2026-04-25 01:24 36.07803 -86.72827 4552 ft 145 kts 249°
2026-04-25 01:25 36.07442 -86.74015 5323 ft 154 kts 249°
2026-04-25 01:25 36.07031 -86.75376 5749 ft 187 kts 249°
2026-04-25 01:25 36.06770 -86.77090 6016 ft 221 kts 266°
2026-04-25 01:25 36.06903 -86.79068 6338 ft 251 kts 279°
2026-04-25 01:26 36.07333 -86.81223 6869 ft 262 kts 282°
2026-04-25 01:26 36.07802 -86.83392 6947 ft 262 kts 284°
2026-04-25 01:26 36.08683 -86.85390 6981 ft 271 kts 309°
2026-04-25 01:26 36.10233 -86.86750 6993 ft 281 kts 335°
2026-04-25 01:27 36.12197 -86.87128 7463 ft 294 kts
2026-04-25 01:27 36.14209 -86.86680 8699 ft 294 kts
2026-04-25 01:27 36.16216 -86.86092 9740 ft 299 kts
2026-04-25 01:28 36.20450 -86.84808 10996 ft 334 kts 10°
2026-04-25 01:28 36.22712 -86.84132 11811 ft 342 kts 10°
2026-04-25 01:28 36.25031 -86.83443 12847 ft 343 kts 10°
2026-04-25 01:28 36.27354 -86.82759 13854 ft 345 kts
2026-04-25 01:29 36.29704 -86.82073 14717 ft 348 kts 10°
2026-04-25 01:29 36.32083 -86.81381 15521 ft 354 kts 10°
2026-04-25 01:29 36.34494 -86.80677 16398 ft 358 kts 10°
2026-04-25 01:29 36.36929 -86.79966 17282 ft 361 kts 10°
2026-04-25 01:30 36.39386 -86.79249 18136 ft 365 kts 10°
2026-04-25 01:30 36.41879 -86.78521 18848 ft 371 kts 10°
2026-04-25 01:30 36.44375 -86.77792 19517 ft 377 kts 10°
2026-04-25 01:30 36.46946 -86.77039 20186 ft 383 kts 10°
2026-04-25 01:31 36.49566 -86.76272 20845 ft 389 kts 10°
2026-04-25 01:31 36.52220 -86.75493 21534 ft 394 kts 10°
2026-04-25 01:31 36.54910 -86.74704 22207 ft 400 kts 11°
2026-04-25 01:31 36.57631 -86.73906 22858 ft 405 kts 11°
2026-04-25 01:32 36.60420 -86.73353 23461 ft 407 kts 358°
2026-04-25 01:32 36.63257 -86.73445 24021 ft 410 kts 354°
2026-04-25 01:32 36.66111 -86.73648 24603 ft 413 kts 354°
2026-04-25 01:32 36.68991 -86.73846 25179 ft 416 kts 354°
2026-04-25 01:33 36.71865 -86.74002 25734 ft 421 kts 354°
2026-04-25 01:33 36.74800 -86.74134 26259 ft 425 kts 354°
2026-04-25 01:33 36.77776 -86.74276 26781 ft 429 kts 353°
2026-04-25 01:33 36.80765 -86.74496 27294 ft 433 kts 353°
2026-04-25 01:34 36.83779 -86.74757 27803 ft 436 kts 352°
2026-04-25 01:34 36.86825 -86.75030 28304 ft 440 kts 352°
2026-04-25 01:34 36.89891 -86.75301 28788 ft 444 kts 352°
2026-04-25 01:34 36.92947 -86.75565 29266 ft 448 kts 353°
2026-04-25 01:35 36.96072 -86.75828 29741 ft 452 kts 352°
2026-04-25 01:35 36.99226 -86.76089 30144 ft 456 kts 353°
2026-04-25 01:35 37.02406 -86.76351 30522 ft 460 kts 353°
2026-04-25 01:35 37.05606 -86.76613 30904 ft 462 kts 353°
2026-04-25 01:36 37.08826 -86.76877 31263 ft 466 kts 353°
2026-04-25 01:36 37.12072 -86.77144 31609 ft 469 kts 353°
2026-04-25 01:36 37.14226 -86.77321 31833 ft 471 kts 353°
2026-04-25 01:36 37.17508 -86.77592 32158 ft 473 kts 353°
2026-04-25 01:37 37.21866 -86.77952 32695 ft 474 kts 353°
2026-04-25 01:37 37.25159 -86.78223 33154 ft 474 kts 353°
2026-04-25 01:37 37.28440 -86.78494 33623 ft 472 kts 353°
2026-04-25 01:37 37.31719 -86.78766 34028 ft 472 kts 353°
2026-04-25 01:38 37.33887 -86.78946 34259 ft 472 kts 353°
2026-04-25 01:38 37.37166 -86.79189 34641 ft 471 kts 354°
2026-04-25 01:38 37.40435 -86.79335 35038 ft 470 kts 355°
2026-04-25 01:38 37.43700 -86.79432 35421 ft 469 kts 355°
2026-04-25 01:39 37.48017 -86.79541 35850 ft 469 kts 354°
2026-04-25 01:39 37.51276 -86.79629 36189 ft 468 kts 354°
2026-04-25 01:39 37.54523 -86.79724 36548 ft 466 kts 354°
2026-04-25 01:39 37.57761 -86.79827 36882 ft 465 kts 354°
2026-04-25 01:40 37.59899 -86.79898 37094 ft 465 kts 353°
2026-04-25 01:40 37.63131 -86.80010 37400 ft 464 kts 353°
2026-04-25 01:40 37.66355 -86.80123 37707 ft 463 kts 353°
2026-04-25 01:40 37.69578 -86.80237 38020 ft 463 kts 353°
2026-04-25 01:41 37.73848 -86.80388 38360 ft 464 kts 352°
2026-04-25 01:41 37.76025 -86.80465 38555 ft 463 kts 352°
2026-04-25 01:41 37.79240 -86.80578 38823 ft 461 kts 353°
2026-04-25 01:41 37.82415 -86.80690 38877 ft 466 kts 353°
2026-04-25 01:42 37.88955 -86.80925 38889 ft 474 kts 353°
2026-04-25 01:42 37.95559 -86.81157 38880 ft 474 kts 352°
2026-04-25 01:43 38.02149 -86.81386 38901 ft 474 kts 352°
2026-04-25 01:43 38.08752 -86.81618 38903 ft 474 kts 352°
2026-04-25 01:44 38.15299 -86.81849 38923 ft 474 kts 352°
2026-04-25 01:44 38.21899 -86.82084 38914 ft 475 kts 352°
2026-04-25 01:45 38.28504 -86.82318 38919 ft 475 kts 352°
2026-04-25 01:45 38.35114 -86.82554 38911 ft 475 kts 352°
2026-04-25 01:46 38.41683 -86.82788 38907 ft 476 kts 352°
2026-04-25 01:46 38.48295 -86.83024 38907 ft 476 kts 352°
2026-04-25 01:47 38.54912 -86.83260 38910 ft 476 kts 352°
2026-04-25 01:47 38.61528 -86.83497 38916 ft 476 kts 352°
2026-04-25 01:48 38.68154 -86.83736 38891 ft 476 kts 352°
2026-04-25 01:48 38.74739 -86.83973 38894 ft 477 kts 352°
2026-04-25 01:49 38.81373 -86.84212 38898 ft 477 kts 352°
2026-04-25 01:49 38.88025 -86.84452 38898 ft 478 kts 351°
2026-04-25 01:50 38.94679 -86.84693 38892 ft 479 kts 351°
2026-04-25 01:50 39.01305 -86.84933 38892 ft 479 kts 351°
2026-04-25 01:51 39.07977 -86.85175 38897 ft 480 kts 351°
2026-04-25 01:51 39.14664 -86.85419 38893 ft 481 kts 351°
2026-04-25 01:52 39.21272 -86.85963 38893 ft 477 kts 346°
2026-04-25 01:52 39.27841 -86.87017 38886 ft 475 kts 345°
2026-04-25 01:53 39.34404 -86.88116 38893 ft 477 kts 345°
2026-04-25 01:53 39.40993 -86.89159 38901 ft 478 kts 345°
2026-04-25 01:54 39.47602 -86.90170 38905 ft 478 kts 346°
2026-04-25 01:54 39.54172 -86.91168 38928 ft 479 kts 345°
2026-04-25 01:55 39.60788 -86.92177 38923 ft 479 kts 345°
2026-04-25 01:55 39.67416 -86.93193 38915 ft 479 kts 345°
2026-04-25 01:56 39.74044 -86.94210 38906 ft 480 kts 345°
2026-04-25 01:56 39.80630 -86.95227 38902 ft 481 kts 345°
2026-04-25 01:57 39.90603 -86.96764 38908 ft 482 kts 345°
2026-04-25 01:58 39.97263 -86.97792 38906 ft 482 kts 345°
2026-04-25 01:58 40.03930 -86.98825 38918 ft 483 kts 345°
2026-04-25 01:59 40.10561 -86.99854 38874 ft 484 kts 345°
2026-04-25 01:59 40.17250 -87.00895 38869 ft 484 kts 345°
2026-04-25 02:00 40.23941 -87.01937 38885 ft 484 kts 345°
2026-04-25 02:00 40.30637 -87.02983 38879 ft 485 kts 345°
2026-04-25 02:01 40.37293 -87.04024 38882 ft 485 kts 345°
2026-04-25 02:01 40.43992 -87.05074 38898 ft 485 kts 345°
2026-04-25 02:02 40.50706 -87.06129 38890 ft 486 kts 345°
2026-04-25 02:02 40.57416 -87.07188 38877 ft 486 kts 345°
2026-04-25 02:03 40.64076 -87.08265 38867 ft 485 kts 345°
2026-04-25 02:03 40.70775 -87.09357 38862 ft 485 kts 345°
2026-04-25 02:04 40.77475 -87.10449 38856 ft 485 kts 345°
2026-04-25 02:04 40.84173 -87.11541 38901 ft 485 kts 345°
2026-04-25 02:05 40.90873 -87.12635 38917 ft 485 kts 345°
2026-04-25 02:05 40.97527 -87.13725 38909 ft 485 kts 345°
2026-04-25 02:06 41.04233 -87.14824 38909 ft 486 kts 345°
2026-04-25 02:06 41.10972 -87.15782 38829 ft 490 kts 347°
2026-04-25 02:06 41.14393 -87.16177 38222 ft 497 kts 348°
2026-04-25 02:07 41.17835 -87.16553 37562 ft 494 kts 348°
2026-04-25 02:07 41.21203 -87.16918 37021 ft 490 kts 348°
2026-04-25 02:07 41.24582 -87.17290 36585 ft 484 kts 348°
2026-04-25 02:07 41.27921 -87.17668 36111 ft 479 kts 348°
2026-04-25 02:08 41.31226 -87.18052 35657 ft 475 kts 348°
2026-04-25 02:08 41.34498 -87.18439 35212 ft 471 kts 348°
2026-04-25 02:08 41.37755 -87.18828 34748 ft 468 kts 348°
2026-04-25 02:08 41.40986 -87.19215 34295 ft 465 kts 348°
2026-04-25 02:09 41.44202 -87.19601 33818 ft 463 kts 348°
2026-04-25 02:09 41.47398 -87.19985 33315 ft 460 kts 348°
2026-04-25 02:09 41.50532 -87.20360 32860 ft 456 kts 348°
2026-04-25 02:09 41.53679 -87.20736 32429 ft 452 kts 349°
2026-04-25 02:10 41.56835 -87.21113 31967 ft 450 kts 349°
2026-04-25 02:10 41.59940 -87.21489 31549 ft 460 kts 349°
2026-04-25 02:10 41.63190 -87.21891 31111 ft 476 kts 349°
2026-04-25 02:10 41.66490 -87.22293 30623 ft 476 kts 349°
2026-04-25 02:11 41.69772 -87.22684 30151 ft 471 kts 350°
2026-04-25 02:11 41.73019 -87.23067 29620 ft 465 kts 350°
2026-04-25 02:11 41.76228 -87.23448 28942 ft 461 kts 350°
2026-04-25 02:11 41.79416 -87.23829 28207 ft 458 kts 350°
2026-04-25 02:12 41.82580 -87.24210 27477 ft 453 kts 351°
2026-04-25 02:12 41.85684 -87.24582 26752 ft 442 kts 351°
2026-04-25 02:12 41.88709 -87.24944 26054 ft 431 kts 351°
2026-04-25 02:12 41.91622 -87.25295 25393 ft 422 kts 351°
2026-04-25 02:13 41.94514 -87.25645 24716 ft 413 kts 351°
2026-04-25 02:13 41.97349 -87.25989 24079 ft 405 kts 351°
2026-04-25 02:13 42.00137 -87.26329 23443 ft 399 kts 351°
2026-04-25 02:13 42.02873 -87.26662 22696 ft 392 kts 351°
2026-04-25 02:14 42.05566 -87.26990 21966 ft 385 kts 351°
2026-04-25 02:14 42.08216 -87.27313 21259 ft 379 kts 352°
2026-04-25 02:14 42.10815 -87.27629 20549 ft 372 kts 352°
2026-04-25 02:14 42.13375 -87.27942 19870 ft 366 kts 352°
2026-04-25 02:15 42.15857 -87.28244 19215 ft 360 kts 352°
2026-04-25 02:15 42.18322 -87.28545 18632 ft 352 kts 351°
2026-04-25 02:15 42.20732 -87.28839 18027 ft 344 kts 351°
2026-04-25 02:15 42.23087 -87.29127 17397 ft 336 kts 352°
2026-04-25 02:16 42.25390 -87.29408 16815 ft 328 kts 352°
2026-04-25 02:16 42.27636 -87.29683 16252 ft 320 kts 352°
2026-04-25 02:16 42.29825 -87.29966 15699 ft 312 kts 348°
2026-04-25 02:16 42.31803 -87.30935 15277 ft 297 kts 324°
2026-04-25 02:17 42.33355 -87.32693 14932 ft 289 kts 315°
2026-04-25 02:17 42.34770 -87.34598 14577 ft 286 kts 314°
2026-04-25 02:17 42.36125 -87.36500 14226 ft 284 kts 313°
2026-04-25 02:17 42.37460 -87.38451 13872 ft 281 kts 313°
2026-04-25 02:18 42.38773 -87.40396 13502 ft 279 kts 313°
2026-04-25 02:18 42.40073 -87.42332 13093 ft 277 kts 313°
2026-04-25 02:18 42.41361 -87.44255 12705 ft 275 kts 313°
2026-04-25 02:18 42.42639 -87.46160 12327 ft 273 kts 313°
2026-04-25 02:19 42.43911 -87.48056 11943 ft 271 kts 313°
2026-04-25 02:19 42.45176 -87.49938 11568 ft 269 kts 313°
2026-04-25 02:19 42.46415 -87.51780 11205 ft 268 kts 313°
2026-04-25 02:19 42.47669 -87.53639 10838 ft 266 kts 313°
2026-04-25 02:20 42.48913 -87.55484 10479 ft 265 kts 313°
2026-04-25 02:20 42.50154 -87.57319 10112 ft 263 kts 313°
2026-04-25 02:20 42.51389 -87.59142 9761 ft 262 kts 313°
2026-04-25 02:20 42.52621 -87.60957 9366 ft 261 kts 313°
2026-04-25 02:21 42.53848 -87.62760 8984 ft 260 kts 313°
2026-04-25 02:21 42.55067 -87.64547 8675 ft 256 kts 313°
2026-04-25 02:21 42.56268 -87.66303 8377 ft 252 kts 313°
2026-04-25 02:21 42.57456 -87.68034 8075 ft 250 kts 313°
2026-04-25 02:22 42.58621 -87.69725 7778 ft 247 kts 313°
2026-04-25 02:22 42.59788 -87.71420 7486 ft 245 kts 313°
2026-04-25 02:22 42.60940 -87.73109 7192 ft 243 kts 313°
2026-04-25 02:22 42.62080 -87.74783 6900 ft 241 kts 313°
2026-04-25 02:23 42.63211 -87.76444 6623 ft 237 kts 313°
2026-04-25 02:23 42.64313 -87.78061 6359 ft 229 kts 313°
2026-04-25 02:23 42.65369 -87.79616 6074 ft 220 kts 313°
2026-04-25 02:23 42.66381 -87.81111 5767 ft 210 kts 313°
2026-04-25 02:24 42.67337 -87.82535 5454 ft 203 kts 313°
2026-04-25 02:24 42.68272 -87.83938 5158 ft 197 kts 313°
2026-04-25 02:24 42.69168 -87.85296 4900 ft 189 kts 313°
2026-04-25 02:24 42.70024 -87.86606 4648 ft 181 kts 313°
2026-04-25 02:25 42.70851 -87.87879 4394 ft 179 kts 313°
2026-04-25 02:25 42.71677 -87.89150 4145 ft 180 kts 313°
2026-04-25 02:25 42.72503 -87.90418 3934 ft 178 kts 313°
2026-04-25 02:25 42.73321 -87.91680 3736 ft 178 kts 313°
2026-04-25 02:26 42.74301 -87.92635 3495 ft 176 kts 349°
2026-04-25 02:26 42.75505 -87.92575 3334 ft 174 kts
2026-04-25 02:26 42.76703 -87.92455 3144 ft 175 kts
2026-04-25 02:26 42.77906 -87.92299 3037 ft 174 kts
2026-04-25 02:27 42.79147 -87.92115 3009 ft 180 kts
2026-04-25 02:27 42.80369 -87.91918 2986 ft 174 kts
2026-04-25 02:27 42.81565 -87.91726 2969 ft 174 kts
2026-04-25 02:27 42.82763 -87.91528 2775 ft 169 kts
2026-04-25 02:28 42.83901 -87.91334 2561 ft 160 kts
2026-04-25 02:28 42.84950 -87.91153 2349 ft 151 kts
2026-04-25 02:28 42.85930 -87.90985 2181 ft 135 kts
2026-04-25 02:28 42.86798 -87.90836 1999 ft 119 kts
2026-04-25 02:29 42.87605 -87.90698 1851 ft 118 kts
2026-04-25 02:29 42.88434 -87.90557 1695 ft 121 kts
2026-04-25 02:29 42.89275 -87.90412 1533 ft 121 kts
2026-04-25 02:29 42.90104 -87.90271 1358 ft 120 kts
2026-04-25 02:30 42.90951 -87.90121 1202 ft 126 kts
2026-04-25 02:30 42.91807 -87.89977 1046 ft 125 kts
2026-04-25 02:30 42.92616 -87.89842 884 ft 111 kts
2026-04-25 02:30 42.93372 -87.89711 696 ft 109 kts
2026-04-25 02:31 42.94032 -87.89601 683 ft 79 kts
2026-04-25 02:31 42.94460 -87.89524 685 ft 41 kts
2026-04-25 02:31 42.94662 -87.89514 685 ft 17 kts 355°
2026-04-25 02:31 42.94773 -87.89542 685 ft 14 kts 339°
2026-04-25 02:32 42.94832 -87.89578 683 ft 8 kts 336°
2026-04-25 02:32 42.94896 -87.89599 683 ft 10 kts 360°
2026-04-25 02:32 42.94960 -87.89617 684 ft 10 kts 309°
2026-04-25 02:32 42.94971 -87.89706 687 ft 10 kts 272°
2026-04-25 02:33 42.95001 -87.89787 681 ft 10 kts 328°
2026-04-25 02:33 42.95062 -87.89836 682 ft 10 kts 322°
2026-04-25 02:33 42.95110 -87.89903 687 ft 10 kts 313°
2026-04-25 02:33 42.95155 -87.89970 684 ft 10 kts 312°
2026-04-25 02:34 42.95199 -87.90036 687 ft 9 kts 311°
2026-04-25 02:34 42.95203 -87.90107 685 ft 8 kts 235°
2026-04-25 02:34 42.95168 -87.90129 681 ft 5 kts 185°
2026-04-25 02:34 42.95133 -87.90119 685 ft 5 kts 166°
2026-04-25 02:35 42.95112 -87.90112 685 ft 2 kts 166°
2026-04-25 02:35 42.95109 -87.90111 686 ft 0 kts 166°